Year,Month,Day,Hour,Minute,Value (Times are PST for temperature in C)
2009,06,23,00,00,9.60
2009,06,23,00,01,9.60
2009,06,23,00,02,9.60
2009,06,23,00,03,9.60
2009,06,23,00,04,9.60
2009,06,23,00,05,9.60
2009,06,23,00,06,9.60
2009,06,23,00,07,9.50
2009,06,23,00,08,9.50
2009,06,23,00,09,9.50
2009,06,23,00,10,9.50
2009,06,23,00,11,9.40
2009,06,23,00,12,9.40
2009,06,23,00,13,9.40
2009,06,23,00,14,9.40
2009,06,23,00,15,9.30
2009,06,23,00,16,9.30
2009,06,23,00,17,9.30
2009,06,23,00,18,9.30
2009,06,23,00,19,9.30
2009,06,23,00,20,9.20
2009,06,23,00,21,9.20
2009,06,23,00,22,9.20
2009,06,23,00,23,9.20
2009,06,23,00,24,9.20
2009,06,23,00,25,9.20
2009,06,23,00,26,9.10
2009,06,23,00,27,9.10
2009,06,23,00,28,9.10
2009,06,23,00,29,9.10
2009,06,23,00,30,9.20
2009,06,23,00,31,9.20
2009,06,23,00,32,9.20
2009,06,23,00,33,9.20
2009,06,23,00,34,9.20
2009,06,23,00,35,9.20
2009,06,23,00,36,9.20
2009,06,23,00,37,9.20
2009,06,23,00,38,9.10
2009,06,23,00,39,9.10
2009,06,23,00,40,9.10
2009,06,23,00,41,9.10
2009,06,23,00,42,9.10
2009,06,23,00,43,9.00
2009,06,23,00,44,9.00
2009,06,23,00,45,8.90
2009,06,23,00,46,8.90
2009,06,23,00,47,8.80
2009,06,23,00,48,8.80
2009,06,23,00,49,8.80
2009,06,23,00,50,8.80
2009,06,23,00,51,8.80
2009,06,23,00,52,8.80
2009,06,23,00,53,8.80
2009,06,23,00,54,8.80
2009,06,23,00,55,8.70
2009,06,23,00,56,8.70
2009,06,23,00,57,8.70
2009,06,23,00,58,8.70
2009,06,23,00,59,8.70
2009,06,23,01,00,8.70
2009,06,23,01,01,8.70
2009,06,23,01,02,8.70
2009,06,23,01,03,8.70
2009,06,23,01,04,8.70
2009,06,23,01,05,8.70
2009,06,23,01,06,8.60
2009,06,23,01,07,8.60
2009,06,23,01,08,8.60
2009,06,23,01,09,8.60
2009,06,23,01,10,8.50
2009,06,23,01,11,8.50
2009,06,23,01,12,8.50
2009,06,23,01,13,8.50
2009,06,23,01,14,8.40
2009,06,23,01,15,8.40
2009,06,23,01,16,8.40
2009,06,23,01,17,8.40
2009,06,23,01,18,8.50
2009,06,23,01,19,8.50
2009,06,23,01,20,8.50
2009,06,23,01,21,8.50
2009,06,23,01,22,8.50
2009,06,23,01,23,8.50
2009,06,23,01,24,8.40
2009,06,23,01,25,8.40
2009,06,23,01,26,8.40
2009,06,23,01,27,8.40
2009,06,23,01,28,8.40
2009,06,23,01,29,8.40
2009,06,23,01,30,8.40
2009,06,23,01,31,8.40
2009,06,23,01,32,8.40
2009,06,23,01,33,8.40
2009,06,23,01,34,8.30
2009,06,23,01,35,8.30
2009,06,23,01,36,8.30
2009,06,23,01,37,8.30
2009,06,23,01,38,8.30
2009,06,23,01,39,8.30
2009,06,23,01,40,8.30
2009,06,23,01,41,8.30
2009,06,23,01,42,8.30
2009,06,23,01,43,8.30
2009,06,23,01,44,8.20
2009,06,23,01,45,8.20
2009,06,23,01,46,8.20
2009,06,23,01,47,8.10
2009,06,23,01,48,8.10
2009,06,23,01,49,8.10
2009,06,23,01,50,8.10
2009,06,23,01,51,8.10
2009,06,23,01,52,8.10
2009,06,23,01,53,8.10
2009,06,23,01,54,8.10
2009,06,23,01,55,8.10
2009,06,23,01,56,8.10
2009,06,23,01,57,8.10
2009,06,23,01,58,8.10
2009,06,23,01,59,8.10
2009,06,23,02,00,8.10
2009,06,23,02,01,8.10
2009,06,23,02,02,8.00
2009,06,23,02,03,8.00
2009,06,23,02,04,8.00
2009,06,23,02,05,8.00
2009,06,23,02,06,7.90
2009,06,23,02,07,7.90
2009,06,23,02,08,7.90
2009,06,23,02,09,7.90
2009,06,23,02,10,7.90
2009,06,23,02,11,7.90
2009,06,23,02,12,7.90
2009,06,23,02,13,7.90
2009,06,23,02,14,7.90
2009,06,23,02,15,7.80
2009,06,23,02,16,7.80
2009,06,23,02,17,7.80
2009,06,23,02,18,7.80
2009,06,23,02,19,7.80
2009,06,23,02,20,7.80
2009,06,23,02,21,7.80
2009,06,23,02,22,7.80
2009,06,23,02,23,7.70
2009,06,23,02,24,7.70
2009,06,23,02,25,7.70
2009,06,23,02,26,7.70
2009,06,23,02,27,7.70
2009,06,23,02,28,7.60
2009,06,23,02,29,7.60
2009,06,23,02,30,7.60
2009,06,23,02,31,7.60
2009,06,23,02,32,7.60
2009,06,23,02,33,7.60
2009,06,23,02,34,7.60
2009,06,23,02,35,7.60
2009,06,23,02,36,7.60
2009,06,23,02,37,7.60
2009,06,23,02,38,7.60
2009,06,23,02,39,7.60
2009,06,23,02,40,7.60
2009,06,23,02,41,7.60
2009,06,23,02,42,7.60
2009,06,23,02,43,7.60
2009,06,23,02,44,7.60
2009,06,23,02,45,7.60
2009,06,23,02,46,7.60
2009,06,23,02,47,7.60
2009,06,23,02,48,7.60
2009,06,23,02,49,7.50
2009,06,23,02,50,7.50
2009,06,23,02,51,7.50
2009,06,23,02,52,7.50
2009,06,23,02,53,7.50
2009,06,23,02,54,7.40
2009,06,23,02,55,7.40
2009,06,23,02,56,7.40
2009,06,23,02,57,7.40
2009,06,23,02,58,7.40
2009,06,23,02,59,7.40
2009,06,23,03,00,7.40
2009,06,23,03,01,7.40
2009,06,23,03,02,7.40
2009,06,23,03,06,7.40
2009,06,23,03,07,7.40
2009,06,23,03,08,7.40
2009,06,23,03,09,7.40
2009,06,23,03,10,7.30
2009,06,23,03,11,7.40
2009,06,23,03,12,7.40
2009,06,23,03,13,7.40
2009,06,23,03,14,7.40
2009,06,23,03,15,7.40
2009,06,23,03,16,7.40
2009,06,23,03,17,7.40
2009,06,23,03,18,7.40
2009,06,23,03,19,7.30
2009,06,23,03,20,7.30
2009,06,23,03,21,7.30
2009,06,23,03,22,7.30
2009,06,23,03,23,7.30
2009,06,23,03,24,7.30
2009,06,23,03,25,7.30
2009,06,23,03,26,7.30
2009,06,23,03,27,7.30
2009,06,23,03,28,7.30
2009,06,23,03,29,7.30
2009,06,23,03,30,7.30
2009,06,23,03,31,7.30
2009,06,23,03,32,7.20
2009,06,23,03,33,7.20
2009,06,23,03,34,7.20
2009,06,23,03,35,7.20
2009,06,23,03,36,7.20
2009,06,23,03,37,7.20
2009,06,23,03,38,7.20
2009,06,23,03,39,7.20
2009,06,23,03,40,7.20
2009,06,23,03,41,7.20
2009,06,23,03,42,7.20
2009,06,23,03,43,7.20
2009,06,23,03,44,7.20
2009,06,23,03,45,7.20
2009,06,23,03,46,7.20
2009,06,23,03,47,7.10
2009,06,23,03,48,7.10
2009,06,23,03,49,7.10
2009,06,23,03,50,7.10
2009,06,23,03,51,7.10
2009,06,23,03,52,7.10
2009,06,23,03,53,7.10
2009,06,23,03,54,7.10
2009,06,23,03,55,7.10
2009,06,23,03,56,7.00
2009,06,23,03,57,7.00
2009,06,23,03,58,7.00
2009,06,23,03,59,7.00
2009,06,23,04,00,7.00
2009,06,23,04,01,7.00
2009,06,23,04,02,6.90
2009,06,23,04,03,6.90
2009,06,23,04,04,6.90
2009,06,23,04,05,6.90
2009,06,23,04,06,6.90
2009,06,23,04,07,6.90
2009,06,23,04,08,7.00
2009,06,23,04,09,7.00
2009,06,23,04,10,7.00
2009,06,23,04,11,7.00
2009,06,23,04,12,7.00
2009,06,23,04,13,7.00
2009,06,23,04,14,7.00
2009,06,23,04,15,7.00
2009,06,23,04,16,6.90
2009,06,23,04,17,7.00
2009,06,23,04,18,7.00
2009,06,23,04,19,7.00
2009,06,23,04,20,7.00
2009,06,23,04,21,7.00
2009,06,23,04,22,7.00
2009,06,23,04,23,7.00
2009,06,23,04,24,6.90
2009,06,23,04,25,6.90
2009,06,23,04,26,6.90
2009,06,23,04,27,6.90
2009,06,23,04,28,6.90
2009,06,23,04,29,6.90
2009,06,23,04,30,6.90
2009,06,23,04,31,6.90
2009,06,23,04,32,6.90
2009,06,23,04,33,6.90
2009,06,23,04,34,6.90
2009,06,23,04,35,6.90
2009,06,23,04,36,6.90
2009,06,23,04,37,6.90
2009,06,23,04,38,6.90
2009,06,23,04,39,6.90
2009,06,23,04,40,6.90
2009,06,23,04,41,6.90
2009,06,23,04,42,6.90
2009,06,23,04,43,6.80
2009,06,23,04,44,6.80
2009,06,23,04,45,6.80
2009,06,23,04,46,6.80
2009,06,23,04,47,6.80
2009,06,23,04,48,6.80
2009,06,23,04,49,6.80
2009,06,23,04,50,6.80
2009,06,23,04,51,6.80
2009,06,23,04,52,6.80
2009,06,23,04,53,6.80
2009,06,23,04,54,6.80
2009,06,23,04,55,6.80
2009,06,23,04,56,6.80
2009,06,23,04,57,6.80
2009,06,23,04,58,6.80
2009,06,23,04,59,6.80
2009,06,23,05,00,6.80
2009,06,23,05,01,6.80
2009,06,23,05,02,6.80
2009,06,23,05,03,6.80
2009,06,23,05,04,6.80
2009,06,23,05,05,6.80
2009,06,23,05,06,6.80
2009,06,23,05,07,6.80
2009,06,23,05,08,6.80
2009,06,23,05,09,6.80
2009,06,23,05,10,6.80
2009,06,23,05,11,6.80
2009,06,23,05,12,6.80
2009,06,23,05,13,6.80
2009,06,23,05,14,6.80
2009,06,23,05,15,6.80
2009,06,23,05,16,6.80
2009,06,23,05,17,6.80
2009,06,23,05,18,6.80
2009,06,23,05,19,6.80
2009,06,23,05,20,6.80
2009,06,23,05,21,6.80
2009,06,23,05,22,6.80
2009,06,23,05,23,6.80
2009,06,23,05,24,6.80
2009,06,23,05,25,6.80
2009,06,23,05,26,6.80
2009,06,23,05,27,6.80
2009,06,23,05,28,6.80
2009,06,23,05,29,6.80
2009,06,23,05,30,6.80
2009,06,23,05,31,6.80
2009,06,23,05,32,6.80
2009,06,23,05,33,6.80
2009,06,23,05,34,6.80
2009,06,23,05,35,6.80
2009,06,23,05,36,6.80
2009,06,23,05,37,6.80
2009,06,23,05,38,6.80
2009,06,23,05,39,6.80
2009,06,23,05,40,6.80
2009,06,23,05,41,6.80
2009,06,23,05,42,6.80
2009,06,23,05,43,6.80
2009,06,23,05,44,6.80
2009,06,23,05,45,6.80
2009,06,23,05,46,6.80
2009,06,23,05,47,6.80
2009,06,23,05,48,6.80
2009,06,23,05,49,6.80
2009,06,23,05,50,6.80
2009,06,23,05,51,6.80
2009,06,23,05,52,6.80
2009,06,23,05,53,6.80
2009,06,23,05,54,6.80
2009,06,23,05,55,6.80
2009,06,23,05,56,6.90
2009,06,23,05,57,6.90
2009,06,23,05,58,6.90
2009,06,23,05,59,6.90
2009,06,23,06,00,6.90
2009,06,23,06,01,6.90
2009,06,23,06,02,6.90
2009,06,23,06,03,6.90
2009,06,23,06,04,6.90
2009,06,23,06,05,6.90
2009,06,23,06,06,7.00
2009,06,23,06,07,7.00
2009,06,23,06,08,7.00
2009,06,23,06,09,7.00
2009,06,23,06,10,7.00
2009,06,23,06,11,7.00
2009,06,23,06,12,7.10
2009,06,23,06,13,7.10
2009,06,23,06,14,7.10
2009,06,23,06,15,7.10
2009,06,23,06,16,7.10
2009,06,23,06,17,7.10
2009,06,23,06,18,7.10
2009,06,23,06,19,7.10
2009,06,23,06,20,7.10
2009,06,23,06,21,7.20
2009,06,23,06,22,7.20
2009,06,23,06,23,7.20
2009,06,23,06,24,7.20
2009,06,23,06,25,7.20
2009,06,23,06,26,7.20
2009,06,23,06,27,7.20
2009,06,23,06,28,7.20
2009,06,23,06,29,7.30
2009,06,23,06,30,7.30
2009,06,23,06,31,7.30
2009,06,23,06,32,7.30
2009,06,23,06,33,7.30
2009,06,23,06,34,7.40
2009,06,23,06,35,7.40
2009,06,23,06,36,7.40
2009,06,23,06,37,7.40
2009,06,23,06,38,7.40
2009,06,23,06,39,7.50
2009,06,23,06,40,7.50
2009,06,23,06,41,7.50
2009,06,23,06,42,7.50
2009,06,23,06,43,7.60
2009,06,23,06,44,7.60
2009,06,23,06,45,7.60
2009,06,23,06,46,7.60
2009,06,23,06,47,7.70
2009,06,23,06,48,7.70
2009,06,23,06,49,7.70
2009,06,23,06,50,7.80
2009,06,23,06,51,7.90
2009,06,23,06,52,7.90
2009,06,23,06,53,8.00
2009,06,23,06,54,8.00
2009,06,23,06,55,8.10
2009,06,23,06,56,8.10
2009,06,23,06,57,8.20
2009,06,23,06,58,8.20
2009,06,23,06,59,8.30
2009,06,23,07,00,8.40
2009,06,23,07,01,8.50
2009,06,23,07,02,8.60
2009,06,23,07,03,8.70
2009,06,23,07,04,8.80
2009,06,23,07,05,8.90
2009,06,23,07,06,9.10
2009,06,23,07,07,9.20
2009,06,23,07,08,9.50
2009,06,23,07,09,9.60
2009,06,23,07,10,9.80
2009,06,23,07,11,10.00
2009,06,23,07,12,10.10
2009,06,23,07,13,10.30
2009,06,23,07,14,10.50
2009,06,23,07,15,10.60
2009,06,23,07,16,10.80
2009,06,23,07,17,10.90
2009,06,23,07,18,11.00
2009,06,23,07,19,11.20
2009,06,23,07,20,11.30
2009,06,23,07,21,11.40
2009,06,23,07,22,11.50
2009,06,23,07,23,11.70
2009,06,23,07,24,11.80
2009,06,23,07,25,11.90
2009,06,23,07,26,12.00
2009,06,23,07,27,12.00
2009,06,23,07,28,12.10
2009,06,23,07,29,12.20
2009,06,23,07,30,12.30
2009,06,23,07,31,12.40
2009,06,23,07,32,12.40
2009,06,23,07,33,12.50
2009,06,23,07,34,12.50
2009,06,23,07,35,12.60
2009,06,23,07,36,12.70
2009,06,23,07,37,12.70
2009,06,23,07,38,12.80
2009,06,23,07,39,12.90
2009,06,23,07,40,12.90
2009,06,23,07,41,13.00
2009,06,23,07,42,13.10
2009,06,23,07,43,13.10
2009,06,23,07,44,13.20
2009,06,23,07,45,13.20
2009,06,23,07,46,13.20
2009,06,23,07,47,13.30
2009,06,23,07,48,13.30
2009,06,23,07,49,13.30
2009,06,23,07,50,13.30
2009,06,23,07,51,13.30
2009,06,23,07,52,13.40
2009,06,23,07,53,13.40
2009,06,23,07,54,13.40
2009,06,23,07,55,13.40
2009,06,23,07,56,13.40
2009,06,23,07,57,13.40
2009,06,23,07,58,13.40
2009,06,23,07,59,13.40
2009,06,23,08,00,13.40
2009,06,23,08,01,13.40
2009,06,23,08,02,13.40
2009,06,23,08,03,13.40
2009,06,23,08,04,13.40
2009,06,23,08,05,13.30
2009,06,23,08,06,13.30
2009,06,23,08,07,13.30
2009,06,23,08,08,13.30
2009,06,23,08,09,13.30
2009,06,23,08,10,13.30
2009,06,23,08,11,13.20
2009,06,23,08,12,13.20
2009,06,23,08,13,13.30
2009,06,23,08,14,13.30
2009,06,23,08,15,13.30
2009,06,23,08,16,13.30
2009,06,23,08,17,13.30
2009,06,23,08,18,13.30
2009,06,23,08,19,13.30
2009,06,23,08,20,13.40
2009,06,23,08,21,13.40
2009,06,23,08,22,13.40
2009,06,23,08,23,13.50
2009,06,23,08,24,13.50
2009,06,23,08,25,13.60
2009,06,23,08,26,13.60
2009,06,23,08,27,13.70
2009,06,23,08,28,13.70
2009,06,23,08,29,13.80
2009,06,23,08,30,13.80
2009,06,23,08,31,13.90
2009,06,23,08,32,13.90
2009,06,23,08,33,14.00
2009,06,23,08,34,14.00
2009,06,23,08,35,14.10
2009,06,23,08,36,14.10
2009,06,23,08,37,14.20
2009,06,23,08,38,14.20
2009,06,23,08,39,14.30
2009,06,23,08,40,14.40
2009,06,23,08,41,14.40
2009,06,23,08,42,14.40
2009,06,23,08,43,14.40
2009,06,23,08,44,14.40
2009,06,23,08,45,14.30
2009,06,23,08,46,14.30
2009,06,23,08,47,14.30
2009,06,23,08,48,14.40
2009,06,23,08,49,14.50
2009,06,23,08,50,14.50
2009,06,23,08,51,14.70
2009,06,23,08,52,14.80
2009,06,23,08,53,14.80
2009,06,23,08,54,14.80
2009,06,23,08,55,14.80
2009,06,23,08,56,14.80
2009,06,23,08,57,14.90
2009,06,23,08,58,15.00
2009,06,23,08,59,15.00
2009,06,23,09,00,15.00
2009,06,23,09,01,15.00
2009,06,23,09,02,15.00
2009,06,23,09,03,15.00
2009,06,23,09,04,15.00
2009,06,23,09,05,15.00
2009,06,23,09,06,15.00
2009,06,23,09,07,15.00
2009,06,23,09,08,15.00
2009,06,23,09,09,15.10
2009,06,23,09,10,15.10
2009,06,23,09,11,15.20
2009,06,23,09,12,15.30
2009,06,23,09,13,15.40
2009,06,23,09,14,15.40
2009,06,23,09,15,15.40
2009,06,23,09,16,15.30
2009,06,23,09,17,15.20
2009,06,23,09,18,15.30
2009,06,23,09,19,15.20
2009,06,23,09,20,15.20
2009,06,23,09,21,15.20
2009,06,23,09,22,15.20
2009,06,23,09,23,15.30
2009,06,23,09,24,15.30
2009,06,23,09,25,15.30
2009,06,23,09,26,15.20
2009,06,23,09,27,15.20
2009,06,23,09,28,15.10
2009,06,23,09,29,15.20
2009,06,23,09,30,15.20
2009,06,23,09,31,15.30
2009,06,23,09,32,15.30
2009,06,23,09,33,15.30
2009,06,23,09,34,15.30
2009,06,23,09,35,15.30
2009,06,23,09,36,15.30
2009,06,23,09,37,15.20
2009,06,23,09,38,15.20
2009,06,23,09,39,15.30
2009,06,23,09,40,15.30
2009,06,23,09,41,15.40
2009,06,23,09,42,15.50
2009,06,23,09,43,15.60
2009,06,23,09,44,15.70
2009,06,23,09,45,15.70
2009,06,23,09,46,15.80
2009,06,23,09,47,15.70
2009,06,23,09,48,15.60
2009,06,23,09,49,15.60
2009,06,23,09,50,15.60
2009,06,23,09,51,15.70
2009,06,23,09,52,15.60
2009,06,23,09,53,15.70
2009,06,23,09,54,15.70
2009,06,23,09,55,15.70
2009,06,23,09,56,15.80
2009,06,23,09,57,15.80
2009,06,23,09,58,15.90
2009,06,23,09,59,16.00
2009,06,23,10,00,16.00
2009,06,23,10,01,16.10
2009,06,23,10,02,16.10
2009,06,23,10,03,16.20
2009,06,23,10,04,16.30
2009,06,23,10,05,16.40
2009,06,23,10,06,16.40
2009,06,23,10,07,16.40
2009,06,23,10,08,16.40
2009,06,23,10,09,16.30
2009,06,23,10,10,16.20
2009,06,23,10,11,16.10
2009,06,23,10,12,16.00
2009,06,23,10,13,16.00
2009,06,23,10,14,15.90
2009,06,23,10,15,15.80
2009,06,23,10,16,15.70
2009,06,23,10,17,15.70
2009,06,23,10,18,15.70
2009,06,23,10,19,15.70
2009,06,23,10,20,15.70
2009,06,23,10,21,15.80
2009,06,23,10,22,15.90
2009,06,23,10,23,16.00
2009,06,23,10,24,16.20
2009,06,23,10,25,16.30
2009,06,23,10,26,16.40
2009,06,23,10,27,16.40
2009,06,23,10,28,16.40
2009,06,23,10,29,16.50
2009,06,23,10,30,16.50
2009,06,23,10,31,16.60
2009,06,23,10,32,16.70
2009,06,23,10,33,16.70
2009,06,23,10,34,16.80
2009,06,23,10,35,16.80
2009,06,23,10,36,16.80
2009,06,23,10,37,16.70
2009,06,23,10,38,16.50
2009,06,23,10,39,16.50
2009,06,23,10,40,16.40
2009,06,23,10,41,16.50
2009,06,23,10,42,16.60
2009,06,23,10,43,16.70
2009,06,23,10,44,16.80
2009,06,23,10,45,16.80
2009,06,23,10,46,16.90
2009,06,23,10,47,16.90
2009,06,23,10,48,16.90
2009,06,23,10,49,16.90
2009,06,23,10,50,16.90
2009,06,23,10,51,16.80
2009,06,23,10,52,16.90
2009,06,23,10,53,16.90
2009,06,23,10,54,16.90
2009,06,23,10,55,16.90
2009,06,23,10,56,16.90
2009,06,23,10,57,17.00
2009,06,23,10,58,17.00
2009,06,23,10,59,17.00
2009,06,23,11,00,17.10
2009,06,23,11,01,17.30
2009,06,23,11,02,17.30
2009,06,23,11,03,17.40
2009,06,23,11,04,17.30
2009,06,23,11,05,17.10
2009,06,23,11,06,17.10
2009,06,23,11,07,17.00
2009,06,23,11,08,17.00
2009,06,23,11,09,16.80
2009,06,23,11,10,16.70
2009,06,23,11,11,16.70
2009,06,23,11,12,16.70
2009,06,23,11,13,16.70
2009,06,23,11,14,16.90
2009,06,23,11,15,17.00
2009,06,23,11,16,17.00
2009,06,23,11,17,17.10
2009,06,23,11,18,17.10
2009,06,23,11,19,17.20
2009,06,23,11,20,17.20
2009,06,23,11,21,17.30
2009,06,23,11,22,17.40
2009,06,23,11,23,17.40
2009,06,23,11,24,17.40
2009,06,23,11,25,17.40
2009,06,23,11,26,17.40
2009,06,23,11,27,17.40
2009,06,23,11,28,17.30
2009,06,23,11,29,17.20
2009,06,23,11,30,17.30
2009,06,23,11,31,17.30
2009,06,23,11,32,17.30
2009,06,23,11,33,17.30
2009,06,23,11,34,17.40
2009,06,23,11,35,17.50
2009,06,23,11,36,17.60
2009,06,23,11,37,17.60
2009,06,23,11,38,17.60
2009,06,23,11,39,17.60
2009,06,23,11,40,17.70
2009,06,23,11,41,17.70
2009,06,23,11,42,17.70
2009,06,23,11,43,17.80
2009,06,23,11,44,17.90
2009,06,23,11,45,17.90
2009,06,23,11,46,17.90
2009,06,23,11,47,17.90
2009,06,23,11,48,17.80
2009,06,23,11,49,17.80
2009,06,23,11,50,17.70
2009,06,23,11,51,17.80
2009,06,23,11,52,17.80
2009,06,23,11,53,17.80
2009,06,23,11,54,17.90
2009,06,23,11,55,18.00
2009,06,23,11,56,18.10
2009,06,23,11,57,18.20
2009,06,23,11,58,18.20
2009,06,23,11,59,18.10
2009,06,23,12,00,18.00
2009,06,23,12,01,17.90
2009,06,23,12,02,17.90
2009,06,23,12,03,17.90
2009,06,23,12,04,18.00
2009,06,23,12,05,18.10
2009,06,23,12,06,18.20
2009,06,23,12,07,18.30
2009,06,23,12,08,18.40
2009,06,23,12,09,18.40
2009,06,23,12,10,18.40
2009,06,23,12,11,18.40
2009,06,23,12,12,18.30
2009,06,23,12,13,18.30
2009,06,23,12,14,18.20
2009,06,23,12,15,18.10
2009,06,23,12,16,18.10
2009,06,23,12,17,18.20
2009,06,23,12,18,18.30
2009,06,23,12,19,18.40
2009,06,23,12,20,18.50
2009,06,23,12,21,18.50
2009,06,23,12,22,18.50
2009,06,23,12,23,18.60
2009,06,23,12,24,18.70
2009,06,23,12,25,18.70
2009,06,23,12,26,18.70
2009,06,23,12,27,18.60
2009,06,23,12,28,18.50
2009,06,23,12,29,18.40
2009,06,23,12,30,18.50
2009,06,23,12,31,18.60
2009,06,23,12,32,18.80
2009,06,23,12,33,18.90
2009,06,23,12,34,18.90
2009,06,23,12,35,18.90
2009,06,23,12,36,18.90
2009,06,23,12,37,18.90
2009,06,23,12,38,18.90
2009,06,23,12,39,18.90
2009,06,23,12,40,18.90
2009,06,23,12,41,18.90
2009,06,23,12,42,18.90
2009,06,23,12,43,18.80
2009,06,23,12,44,18.70
2009,06,23,12,45,18.60
2009,06,23,12,46,18.50
2009,06,23,12,47,18.30
2009,06,23,12,48,18.30
2009,06,23,12,49,18.30
2009,06,23,12,50,18.30
2009,06,23,12,51,18.30
2009,06,23,12,52,18.20
2009,06,23,12,53,18.20
2009,06,23,12,54,18.30
2009,06,23,12,55,18.20
2009,06,23,12,56,18.20
2009,06,23,12,57,18.20
2009,06,23,12,58,18.30
2009,06,23,12,59,18.40
2009,06,23,13,00,18.60
2009,06,23,13,01,18.70
2009,06,23,13,02,18.80
2009,06,23,13,03,18.80
2009,06,23,13,04,19.00
2009,06,23,13,05,19.10
2009,06,23,13,06,19.20
2009,06,23,13,07,19.10
2009,06,23,13,08,19.10
2009,06,23,13,09,19.00
2009,06,23,13,10,19.00
2009,06,23,13,11,19.10
2009,06,23,13,12,19.10
2009,06,23,13,13,19.00
2009,06,23,13,14,18.80
2009,06,23,13,15,18.70
2009,06,23,13,16,18.70
2009,06,23,13,17,18.70
2009,06,23,13,18,18.80
2009,06,23,13,19,18.80
2009,06,23,13,20,18.80
2009,06,23,13,21,18.80
2009,06,23,13,22,18.80
2009,06,23,13,23,18.80
2009,06,23,13,24,18.80
2009,06,23,13,25,18.90
2009,06,23,13,26,18.90
2009,06,23,13,27,18.90
2009,06,23,13,28,18.90
2009,06,23,13,29,18.90
2009,06,23,13,30,18.90
2009,06,23,13,31,18.80
2009,06,23,13,32,18.60
2009,06,23,13,33,18.50
2009,06,23,13,34,18.50
2009,06,23,13,35,18.50
2009,06,23,13,36,18.60
2009,06,23,13,37,18.60
2009,06,23,13,38,18.70
2009,06,23,13,39,18.70
2009,06,23,13,40,18.80
2009,06,23,13,41,18.70
2009,06,23,13,42,18.70
2009,06,23,13,43,18.70
2009,06,23,13,44,18.80
2009,06,23,13,45,18.80
2009,06,23,13,46,18.70
2009,06,23,13,47,18.70
2009,06,23,13,48,18.70
2009,06,23,13,49,18.60
2009,06,23,13,50,18.50
2009,06,23,13,51,18.50
2009,06,23,13,52,18.50
2009,06,23,13,53,18.50
2009,06,23,13,54,18.60
2009,06,23,13,55,18.60
2009,06,23,13,56,18.70
2009,06,23,13,57,18.70
2009,06,23,13,58,18.60
2009,06,23,13,59,18.60
2009,06,23,14,00,18.60
2009,06,23,14,01,18.60
2009,06,23,14,02,18.70
2009,06,23,14,03,18.70
2009,06,23,14,04,18.80
2009,06,23,14,05,18.80
2009,06,23,14,06,18.90
2009,06,23,14,07,18.90
2009,06,23,14,08,18.90
2009,06,23,14,09,18.90
2009,06,23,14,10,18.90
2009,06,23,14,11,18.90
2009,06,23,14,12,18.80
2009,06,23,14,13,18.90
2009,06,23,14,14,18.90
2009,06,23,14,15,18.90
2009,06,23,14,16,18.90
2009,06,23,14,17,18.90
2009,06,23,14,18,18.90
2009,06,23,14,19,18.90
2009,06,23,14,20,19.00
2009,06,23,14,21,18.90
2009,06,23,14,22,18.80
2009,06,23,14,23,18.80
2009,06,23,14,24,18.80
2009,06,23,14,25,18.90
2009,06,23,14,26,18.90
2009,06,23,14,27,18.90
2009,06,23,14,28,18.90
2009,06,23,14,29,18.90
2009,06,23,14,30,18.90
2009,06,23,14,31,18.90
2009,06,23,14,32,18.90
2009,06,23,14,33,18.90
2009,06,23,14,34,19.00
2009,06,23,14,35,19.00
2009,06,23,14,36,19.00
2009,06,23,14,37,19.10
2009,06,23,14,38,19.00
2009,06,23,14,39,19.00
2009,06,23,14,40,18.90
2009,06,23,14,41,18.90
2009,06,23,14,42,18.90
2009,06,23,14,43,18.90
2009,06,23,14,44,19.00
2009,06,23,14,45,19.10
2009,06,23,14,46,19.10
2009,06,23,14,47,19.10
2009,06,23,14,48,19.00
2009,06,23,14,49,19.00
2009,06,23,14,50,18.90
2009,06,23,14,51,18.90
2009,06,23,14,52,18.90
2009,06,23,14,53,18.90
2009,06,23,14,54,18.90
2009,06,23,14,55,18.90
2009,06,23,14,56,18.90
2009,06,23,14,57,18.90
2009,06,23,14,58,18.90
2009,06,23,14,59,18.90
2009,06,23,15,00,18.90
2009,06,23,15,01,18.90
2009,06,23,15,02,19.00
2009,06,23,15,03,19.00
2009,06,23,15,04,19.00
2009,06,23,15,05,18.90
2009,06,23,15,06,18.90
2009,06,23,15,07,18.80
2009,06,23,15,08,18.80
2009,06,23,15,09,18.80
2009,06,23,15,10,18.80
2009,06,23,15,11,18.80
2009,06,23,15,12,18.80
2009,06,23,15,13,18.80
2009,06,23,15,14,18.80
2009,06,23,15,15,18.80
2009,06,23,15,16,18.80
2009,06,23,15,17,18.80
2009,06,23,15,18,18.90
2009,06,23,15,19,18.90
2009,06,23,15,20,19.00
2009,06,23,15,21,19.00
2009,06,23,15,22,18.90
2009,06,23,15,23,18.90
2009,06,23,15,24,18.90
2009,06,23,15,25,18.90
2009,06,23,15,26,18.90
2009,06,23,15,27,18.90
2009,06,23,15,28,18.90
2009,06,23,15,29,18.80
2009,06,23,15,30,18.80
2009,06,23,15,31,18.80
2009,06,23,15,32,18.80
2009,06,23,15,33,18.80
2009,06,23,15,34,18.80
2009,06,23,15,35,18.80
2009,06,23,15,36,18.80
2009,06,23,15,37,18.80
2009,06,23,15,38,18.80
2009,06,23,15,39,18.80
2009,06,23,15,40,18.80
2009,06,23,15,41,18.70
2009,06,23,15,42,18.70
2009,06,23,15,43,18.80
2009,06,23,15,44,18.80
2009,06,23,15,45,18.80
2009,06,23,15,46,18.80
2009,06,23,15,47,18.80
2009,06,23,15,48,18.80
2009,06,23,15,49,18.70
2009,06,23,15,50,18.70
2009,06,23,15,51,18.70
2009,06,23,15,52,18.70
2009,06,23,15,53,18.70
2009,06,23,15,54,18.70
2009,06,23,15,55,18.60
2009,06,23,15,56,18.60
2009,06,23,15,57,18.60
2009,06,23,15,58,18.60
2009,06,23,15,59,18.50
2009,06,23,16,00,18.60
2009,06,23,16,01,18.60
2009,06,23,16,02,18.60
2009,06,23,16,03,18.60
2009,06,23,16,04,18.60
2009,06,23,16,05,18.60
2009,06,23,16,06,18.70
2009,06,23,16,07,18.70
2009,06,23,16,08,18.70
2009,06,23,16,09,18.70
2009,06,23,16,10,18.60
2009,06,23,16,11,18.60
2009,06,23,16,12,18.60
2009,06,23,16,13,18.60
2009,06,23,16,14,18.60
2009,06,23,16,15,18.60
2009,06,23,16,16,18.60
2009,06,23,16,17,18.70
2009,06,23,16,18,18.70
2009,06,23,16,19,18.60
2009,06,23,16,20,18.60
2009,06,23,16,21,18.60
2009,06,23,16,22,18.60
2009,06,23,16,23,18.60
2009,06,23,16,24,18.60
2009,06,23,16,25,18.60
2009,06,23,16,26,18.60
2009,06,23,16,27,18.60
2009,06,23,16,28,18.60
2009,06,23,16,29,18.60
2009,06,23,16,30,18.60
2009,06,23,16,31,18.60
2009,06,23,16,32,18.50
2009,06,23,16,33,18.50
2009,06,23,16,34,18.50
2009,06,23,16,35,18.50
2009,06,23,16,36,18.50
2009,06,23,16,37,18.60
2009,06,23,16,38,18.60
2009,06,23,16,39,18.60
2009,06,23,16,40,18.60
2009,06,23,16,41,18.60
2009,06,23,16,42,18.60
2009,06,23,16,43,18.50
2009,06,23,16,44,18.50
2009,06,23,16,45,18.50
2009,06,23,16,46,18.50
2009,06,23,16,47,18.40
2009,06,23,16,48,18.50
2009,06,23,16,49,18.50
2009,06,23,16,50,18.50
2009,06,23,16,51,18.50
2009,06,23,16,52,18.50
2009,06,23,16,53,18.50
2009,06,23,16,54,18.40
2009,06,23,16,55,18.40
2009,06,23,16,56,18.40
2009,06,23,16,57,18.40
2009,06,23,16,58,18.40
2009,06,23,16,59,18.40
2009,06,23,17,00,18.40
2009,06,23,17,01,18.40
2009,06,23,17,02,18.40
2009,06,23,17,03,18.40
2009,06,23,17,04,18.40
2009,06,23,17,05,18.40
2009,06,23,17,06,18.40
2009,06,23,17,07,18.40
2009,06,23,17,08,18.40
2009,06,23,17,09,18.40
2009,06,23,17,10,18.40
2009,06,23,17,11,18.40
2009,06,23,17,12,18.40
2009,06,23,17,13,18.40
2009,06,23,17,14,18.40
2009,06,23,17,15,18.40
2009,06,23,17,16,18.40
2009,06,23,17,17,18.50
2009,06,23,17,18,18.50
2009,06,23,17,19,18.50
2009,06,23,17,20,18.50
2009,06,23,17,21,18.60
2009,06,23,17,22,18.60
2009,06,23,17,23,18.60
2009,06,23,17,24,18.60
2009,06,23,17,25,18.60
2009,06,23,17,26,18.60
2009,06,23,17,27,18.60
2009,06,23,17,28,18.60
2009,06,23,17,29,18.60
2009,06,23,17,30,18.60
2009,06,23,17,31,18.60
2009,06,23,17,32,18.60
2009,06,23,17,33,18.60
2009,06,23,17,34,18.60
2009,06,23,17,35,18.60
2009,06,23,17,36,18.60
2009,06,23,17,37,18.60
2009,06,23,17,38,18.60
2009,06,23,17,39,18.60
2009,06,23,17,40,18.60
2009,06,23,17,41,18.60